Regional Weather Roundup
Issued by NWS Kansas City/Pleasant Hill, MO

Home | Current Version | Previous Version | Graphics & Text | Print | Product List | Glossary Off
Versions: 1 2 3 4 5 6 7 8 9 10 11 12 13 14 15 16 17 18 19 20 21 22 23 24 25 26 27 28

000
ASUS43 KEAX 241110
RWREAX

WEATHER ROUNDUP FOR EASTERN KANSAS AND NORTHWEST MISSOURI
NATIONAL WEATHER SERVICE KANSAS CITY/PLEASANT HILL MO
600 AM CDT TUE MAY 24 2016

KSZ040-057-103>105-MOZ028-029-037-043-241200-
...KANSAS CITY METROPOLITAN AREA...

CITY           SKY/WX    TMP DP  RH WIND       PRES   REMARKS
K.C. INTL      CLOUDY    62  60  93 SW6       29.92R
K.C. DOWNTOWN  CLOUDY    64  61  90 CALM      29.90R
LEES SUMMIT    MOCLDY    63  61  93 SE5       29.90F
OLATHE - IXD   CLOUDY    63  62  97 S8        29.91S
OLATHE - OJC   CLOUDY    62  60  93 S8        29.90S
LAWRENCE       TSTM      61  61 100 VRB5      29.93R FOG

$$

MOZ001>008-011>017-020>025-030>033-038>040-044>046-053-054-241200-
...NORTHERN AND CENTRAL MISSOURI...

CITY           SKY/WX    TMP DP  RH WIND       PRES   REMARKS
ST. JOSEPH     CLOUDY    64  61  90 SW13      29.88R
MOSBY          CLOUDY    63  61  94 CALM      29.90F THUNDER
WARRENSBURG    TSTM      61  59  94 CALM      29.92S
WHITEMAN AFB   MOCLDY    62  62 100 S7        29.92R
CLINTON        CLOUDY    63  63 100 CALM      29.94R
SEDALIA        CLOUDY    63  60  90 SE7       29.95R
WARSAW         NOT AVBL
CHILLICOTHE      N/A     63  61  93 CALM      29.94R
KIRKSVILLE     CLEAR     59  57  93 W3        29.95R FOG

$$

MOZ041-047>049-056>058-063>065-088>090-097-241200-
...EASTERN AND SOUTHERN MISSOURI...

CITY           SKY/WX    TMP DP  RH WIND       PRES   REMARKS
ST. LOUIS INTL CLOUDY    70  54  56 S6        29.98R
SPIRIT OF STL  CLOUDY    68  55  63 S3        29.96R
COLUMBIA       CLEAR     62  59  90 SE6       29.96R
JEFFERSON CITY CLEAR     61  58  90 SE3       29.95R
ROLLA          CLOUDY    64  58  80 S6        29.96R
OSAGE BEACH      N/A    N/A N/A N/A MISG        N/A
SPRINGFIELD    CLOUDY    64  61  90 S10       29.95R
JOPLIN         PTCLDY    65  62  90 SE5       29.93R
WEST PLAINS    TSTM      61  58  90 NE5       30.01R

$$

IAZ060-094-KSZ022-034>040-054-083-096-NEZ052-066-093-241200-
...KANSAS...SOUTHEAST NEBRASKA AND IOWA...

CITY           SKY/WX    TMP DP  RH WIND       PRES   REMARKS
TOPEKA         CLOUDY    61  59  93 E5        29.88F
MANHATTAN      CLOUDY    62  58  86 SW5       29.89R
EMPORIA        LGT RAIN  61  58  90 N17G28    29.93R
CHANUTE        CLOUDY    67  63  87 SE7       29.89R
WICHITA        CLOUDY    70  67  90 E8        29.85R
OMAHA          CLOUDY    61  58  90 S3        29.84R
LINCOLN        CLOUDY    60  58  92 CALM      29.85R
FALLS CITY     CLOUDY    66  62  87 W6        29.87R
LAMONI         CLOUDY    61  58  90 S9        29.89R
DES MOINES     CLOUDY    64  61  90 S5        29.88S

$$





USA.gov is the U.S. government's official web portal to all federal, state and local government web resources and services.